GLO1347 SBVT-SBSP

Flight info

Callsign GLO1347
Flight time 1h 19m
Altitude 38000
Route MABSI UZ44 ADA UZ45 IBDAL
Aircraft B738/M-SDE2E3FGHIRWXY/LB1

Departure

Time 2026-05-05 22:59
Airport Eurico de Aguiar Salles International Airport (SBVT)

Arrival

Time 2026-05-06 00:19
Airport Congonhas–Deputado Freitas Nobre Airport (SBSP)
Time Latitude Longitude Altitude Speed Heading
2026-05-05 22:08 -20.26497 -40.28175 34 ft 0 kts 262°
2026-05-05 22:48 -20.26497 -40.28172 34 ft 2 kts 260°
2026-05-05 22:49 -20.26494 -40.28155 32 ft 2 kts 259°
2026-05-05 22:49 -20.26491 -40.28137 31 ft 2 kts 261°
2026-05-05 22:49 -20.26489 -40.28120 33 ft 2 kts 265°
2026-05-05 22:49 -20.26487 -40.28102 33 ft 2 kts 256°
2026-05-05 22:50 -20.26481 -40.28086 29 ft 2 kts 237°
2026-05-05 22:50 -20.26473 -40.28071 31 ft 2 kts 263°
2026-05-05 22:50 -20.26477 -40.28055 31 ft 2 kts 317°
2026-05-05 22:50 -20.26491 -40.28045 33 ft 2 kts 339°
2026-05-05 22:51 -20.26504 -40.28041 34 ft 1 kts 347°
2026-05-05 22:51 -20.26508 -40.28040 34 ft 0 kts 350°
2026-05-05 22:53 -20.26503 -40.28040 34 ft 3 kts 352°
2026-05-05 22:53 -20.26456 -40.28047 34 ft 11 kts 352°
2026-05-05 22:53 -20.26320 -40.28067 34 ft 16 kts 353°
2026-05-05 22:54 -20.26245 -40.28077 34 ft 16 kts 352°
2026-05-05 22:54 -20.26099 -40.28098 34 ft 17 kts 352°
2026-05-05 22:54 -20.26024 -40.28109 35 ft 16 kts 352°
2026-05-05 22:54 -20.25914 -40.28124 35 ft 16 kts 353°
2026-05-05 22:55 -20.25808 -40.28140 34 ft 15 kts 352°
2026-05-05 22:55 -20.25676 -40.28161 34 ft 14 kts 352°
2026-05-05 22:55 -20.25608 -40.28171 34 ft 15 kts 352°
2026-05-05 22:55 -20.25494 -40.28188 31 ft 18 kts 352°
2026-05-05 22:56 -20.25360 -40.28190 27 ft 17 kts 23°
2026-05-05 22:56 -20.25302 -40.28153 28 ft 0 kts 32°
2026-05-05 22:57 -20.25277 -40.28137 29 ft 9 kts 32°
2026-05-05 22:57 -20.25194 -40.28082 29 ft 19 kts 28°
2026-05-05 22:57 -20.25025 -40.28079 28 ft 29 kts 352°
2026-05-05 22:58 -20.24858 -40.28100 26 ft 15 kts
2026-05-05 22:58 -20.24782 -40.28101 25 ft 9 kts 291°
2026-05-05 22:58 -20.24803 -40.28117 23 ft 4 kts 164°
2026-05-05 22:58 -20.24830 -40.28109 28 ft 4 kts 169°
2026-05-05 22:59 -20.25054 -40.28074 28 ft 79 kts 172°
2026-05-05 22:59 -20.25905 -40.27948 39 ft 164 kts 173°
2026-05-05 22:59 -20.27209 -40.27774 598 ft 202 kts 174°
2026-05-05 22:59 -20.28646 -40.27579 1565 ft 216 kts 172°
2026-05-05 23:00 -20.30545 -40.27265 2641 ft 237 kts 171°
2026-05-05 23:00 -20.31861 -40.27069 3183 ft 248 kts 171°
2026-05-05 23:00 -20.33590 -40.26814 4104 ft 253 kts 172°
2026-05-05 23:01 -20.35352 -40.26582 4963 ft 261 kts 179°
2026-05-05 23:01 -20.37126 -40.27009 5869 ft 265 kts 206°
2026-05-05 23:01 -20.38529 -40.28249 6798 ft 268 kts 232°
2026-05-05 23:01 -20.39874 -40.29653 7582 ft 274 kts 210°
2026-05-05 23:02 -20.41581 -40.30548 8420 ft 278 kts 205°
2026-05-05 23:02 -20.43355 -40.31427 9250 ft 284 kts 205°
2026-05-05 23:02 -20.45163 -40.32342 10035 ft 291 kts 206°
2026-05-05 23:02 -20.47014 -40.33299 10639 ft 304 kts 206°
2026-05-05 23:03 -20.48983 -40.34335 10833 ft 331 kts 207°
2026-05-05 23:03 -20.51117 -40.35473 11088 ft 352 kts 207°
2026-05-05 23:03 -20.53348 -40.36674 11666 ft 360 kts 207°
2026-05-05 23:03 -20.55595 -40.37890 12410 ft 363 kts 207°
2026-05-05 23:04 -20.57833 -40.39106 13116 ft 366 kts 207°
2026-05-05 23:04 -20.60116 -40.40349 13789 ft 371 kts 207°
2026-05-05 23:04 -20.62439 -40.41617 14386 ft 375 kts 208°
2026-05-05 23:04 -20.64753 -40.42879 15023 ft 376 kts 208°
2026-05-05 23:05 -20.67082 -40.44151 15696 ft 377 kts 208°
2026-05-05 23:05 -20.69440 -40.45439 16346 ft 379 kts 208°
2026-05-05 23:05 -20.71778 -40.46717 16963 ft 381 kts 208°
2026-05-05 23:05 -20.74156 -40.48017 17571 ft 384 kts 209°
2026-05-05 23:06 -20.76517 -40.49308 18185 ft 386 kts 209°
2026-05-05 23:06 -20.78922 -40.50624 18763 ft 388 kts 209°
2026-05-05 23:06 -20.81343 -40.51949 19264 ft 391 kts 210°
2026-05-05 23:06 -20.83780 -40.53283 19760 ft 394 kts 210°
2026-05-05 23:07 -20.86188 -40.54601 20256 ft 396 kts 210°
2026-05-05 23:07 -20.88664 -40.55958 20765 ft 399 kts 210°
2026-05-05 23:07 -20.91084 -40.57381 21246 ft 400 kts 216°
2026-05-05 23:07 -20.93344 -40.59135 21740 ft 401 kts 220°
2026-05-05 23:08 -20.95548 -40.60989 22237 ft 403 kts 221°
2026-05-05 23:08 -20.97754 -40.62866 22713 ft 406 kts 221°
2026-05-05 23:08 -20.99965 -40.64728 23160 ft 409 kts 221°
2026-05-05 23:08 -21.02231 -40.66610 23615 ft 411 kts 220°
2026-05-05 23:09 -21.04515 -40.68488 24026 ft 414 kts 220°
2026-05-05 23:09 -21.06789 -40.70348 24415 ft 416 kts 220°
2026-05-05 23:09 -21.09110 -40.72244 24799 ft 418 kts 220°
2026-05-05 23:09 -21.11401 -40.74117 25177 ft 419 kts 220°
2026-05-05 23:10 -21.13733 -40.76024 25560 ft 421 kts 220°
2026-05-05 23:10 -21.16075 -40.77944 25930 ft 423 kts 220°
2026-05-05 23:10 -21.18396 -40.79850 26279 ft 425 kts 220°
2026-05-05 23:10 -21.20758 -40.81789 26629 ft 427 kts 220°
2026-05-05 23:11 -21.23131 -40.83740 26986 ft 429 kts 220°
2026-05-05 23:11 -21.25480 -40.85671 27329 ft 431 kts 221°
2026-05-05 23:11 -21.27876 -40.87641 27657 ft 433 kts 221°
2026-05-05 23:11 -21.30278 -40.89617 27986 ft 434 kts 221°
2026-05-05 23:12 -21.32672 -40.91588 28318 ft 436 kts 221°
2026-05-05 23:12 -21.35060 -40.93553 28633 ft 438 kts 221°
2026-05-05 23:12 -21.37496 -40.95560 28943 ft 440 kts 221°
2026-05-05 23:12 -21.39936 -40.97571 29245 ft 441 kts 221°
2026-05-05 23:13 -21.42350 -40.99561 29532 ft 443 kts 221°
2026-05-05 23:13 -21.44810 -41.01591 29815 ft 445 kts 221°
2026-05-05 23:13 -21.47281 -41.03630 30128 ft 446 kts 221°
2026-05-05 23:13 -21.49713 -41.05637 30524 ft 444 kts 221°
2026-05-05 23:14 -21.52173 -41.07668 30942 ft 441 kts 221°
2026-05-05 23:14 -21.54578 -41.09656 31357 ft 438 kts 221°
2026-05-05 23:14 -21.57000 -41.11658 31726 ft 437 kts 221°
2026-05-05 23:14 -21.59388 -41.13634 32087 ft 436 kts 221°
2026-05-05 23:15 -21.61796 -41.15628 32459 ft 434 kts 221°
2026-05-05 23:15 -21.64190 -41.17610 32841 ft 432 kts 221°
2026-05-05 23:15 -21.66557 -41.19572 33184 ft 431 kts 221°
2026-05-05 23:15 -21.68923 -41.21534 33523 ft 430 kts 221°
2026-05-05 23:16 -21.71295 -41.23500 33891 ft 429 kts 222°
2026-05-05 23:16 -21.73667 -41.25468 34267 ft 426 kts 222°
2026-05-05 23:16 -21.75987 -41.27409 34562 ft 425 kts 222°
2026-05-05 23:16 -21.78332 -41.29383 34813 ft 425 kts 222°
2026-05-05 23:17 -21.80639 -41.31330 35064 ft 425 kts 222°
2026-05-05 23:17 -21.82974 -41.33300 35351 ft 424 kts 222°
2026-05-05 23:17 -21.85274 -41.35240 35637 ft 423 kts 222°
2026-05-05 23:17 -21.87603 -41.37204 35885 ft 423 kts 222°
2026-05-05 23:18 -21.89927 -41.39165 36144 ft 422 kts 222°
2026-05-05 23:18 -21.92218 -41.41098 36425 ft 421 kts 222°
2026-05-05 23:18 -21.94515 -41.43037 36666 ft 421 kts 222°
2026-05-05 23:18 -21.96829 -41.44991 36903 ft 421 kts 222°
2026-05-05 23:19 -21.99115 -41.46922 37159 ft 420 kts 222°
2026-05-05 23:19 -22.01417 -41.48867 37443 ft 418 kts 222°
2026-05-05 23:19 -22.03713 -41.50808 37720 ft 417 kts 222°
2026-05-05 23:19 -22.05970 -41.52718 37954 ft 416 kts 222°
2026-05-05 23:20 -22.08257 -41.54657 38171 ft 416 kts 222°
2026-05-05 23:20 -22.10520 -41.56579 38213 ft 419 kts 222°
2026-05-05 23:20 -22.15112 -41.60480 38215 ft 418 kts 222°
2026-05-05 23:21 -22.19648 -41.64334 38217 ft 414 kts 222°
2026-05-05 23:21 -22.24141 -41.68156 38207 ft 410 kts 222°
2026-05-05 23:22 -22.28606 -41.71960 38211 ft 408 kts 222°
2026-05-05 23:22 -22.33076 -41.75769 38216 ft 408 kts 222°
2026-05-05 23:23 -22.37738 -41.79292 38224 ft 411 kts 216°
2026-05-05 23:23 -22.42608 -41.82565 38215 ft 414 kts 216°
2026-05-05 23:24 -22.47509 -41.85870 38225 ft 416 kts 216°
2026-05-05 23:24 -22.52395 -41.89206 38221 ft 418 kts 216°
2026-05-05 23:25 -22.57311 -41.92578 38219 ft 419 kts 216°
2026-05-05 23:25 -22.62264 -41.95977 38217 ft 421 kts 216°
2026-05-05 23:26 -22.67179 -41.99352 38216 ft 421 kts 216°
2026-05-05 23:26 -22.72076 -42.02851 38213 ft 421 kts 217°
2026-05-05 23:27 -22.76962 -42.06381 38212 ft 421 kts 217°
2026-05-05 23:27 -22.81178 -42.10631 38218 ft 413 kts 233°
2026-05-05 23:28 -22.84135 -42.15917 38220 ft 410 kts 245°
2026-05-05 23:28 -22.86496 -42.21523 38212 ft 409 kts 246°
2026-05-05 23:29 -22.88840 -42.27135 38209 ft 409 kts 246°
2026-05-05 23:29 -22.91212 -42.32757 38213 ft 408 kts 246°
2026-05-05 23:30 -22.93584 -42.38352 38211 ft 408 kts 245°
2026-05-05 23:30 -22.95952 -42.43932 38211 ft 408 kts 245°
2026-05-05 23:31 -22.98320 -42.49521 38212 ft 408 kts 245°
2026-05-05 23:31 -23.00690 -42.55120 38206 ft 409 kts 245°
2026-05-05 23:32 -23.03060 -42.60727 38209 ft 409 kts 245°
2026-05-05 23:32 -23.05444 -42.66373 38208 ft 410 kts 245°
2026-05-05 23:33 -23.07808 -42.71979 38202 ft 410 kts 245°
2026-05-05 23:33 -23.10177 -42.77603 38202 ft 410 kts 245°
2026-05-05 23:34 -23.12545 -42.83233 38203 ft 411 kts 245°
2026-05-05 23:34 -23.14927 -42.88902 38198 ft 411 kts 245°
2026-05-05 23:35 -23.17216 -42.94355 38191 ft 411 kts 245°
2026-05-05 23:35 -23.19574 -42.99981 38194 ft 411 kts 245°
2026-05-05 23:36 -23.21955 -43.05670 38177 ft 412 kts 244°
2026-05-05 23:36 -23.24334 -43.11356 38191 ft 415 kts 244°
2026-05-05 23:37 -23.26719 -43.17069 38199 ft 417 kts 244°
2026-05-05 23:37 -23.29124 -43.22833 38193 ft 420 kts 244°
2026-05-05 23:38 -23.31364 -43.28757 38182 ft 425 kts 252°
2026-05-05 23:38 -23.32826 -43.34980 38189 ft 427 kts 253°
2026-05-05 23:39 -23.34250 -43.41241 38192 ft 427 kts 253°
2026-05-05 23:39 -23.35694 -43.47488 38189 ft 426 kts 253°
2026-05-05 23:40 -23.37150 -43.53728 38184 ft 424 kts 253°
2026-05-05 23:40 -23.38606 -43.59962 38184 ft 422 kts 253°
2026-05-05 23:41 -23.39802 -43.65089 38185 ft 420 kts 253°
2026-05-05 23:41 -23.41233 -43.71237 38186 ft 419 kts 253°
2026-05-05 23:42 -23.42664 -43.77396 38187 ft 417 kts 253°
2026-05-05 23:42 -23.44082 -43.83510 38187 ft 416 kts 253°
2026-05-05 23:43 -23.45488 -43.89587 38187 ft 415 kts 253°
2026-05-05 23:43 -23.46904 -43.95716 38188 ft 415 kts 253°
2026-05-05 23:44 -23.48304 -44.01790 38189 ft 415 kts 253°
2026-05-05 23:44 -23.49712 -44.07907 38189 ft 416 kts 253°
2026-05-05 23:45 -23.51115 -44.14015 38189 ft 416 kts 253°
2026-05-05 23:45 -23.52518 -44.20128 38191 ft 417 kts 253°
2026-05-05 23:46 -23.53923 -44.26252 38188 ft 417 kts 253°
2026-05-05 23:46 -23.55329 -44.32388 38191 ft 417 kts 253°
2026-05-05 23:47 -23.56731 -44.38526 38185 ft 418 kts 253°
2026-05-05 23:47 -23.58130 -44.44660 38188 ft 417 kts 253°
2026-05-05 23:48 -23.59526 -44.50796 38184 ft 417 kts 253°
2026-05-05 23:48 -23.60921 -44.56934 38181 ft 416 kts 253°
2026-05-05 23:49 -23.62308 -44.63055 38184 ft 416 kts 252°
2026-05-05 23:49 -23.63002 -44.66120 38039 ft 418 kts 253°
2026-05-05 23:49 -23.63706 -44.69224 37537 ft 420 kts 253°
2026-05-05 23:50 -23.64404 -44.72317 36965 ft 418 kts 253°
2026-05-05 23:50 -23.65089 -44.75356 36381 ft 417 kts 253°
2026-05-05 23:50 -23.65787 -44.78448 35762 ft 417 kts 253°
2026-05-05 23:50 -23.66470 -44.81481 35276 ft 414 kts 253°
2026-05-05 23:51 -23.67153 -44.84522 34832 ft 410 kts 253°
2026-05-05 23:51 -23.67835 -44.87558 34387 ft 407 kts 253°
2026-05-05 23:51 -23.68501 -44.90521 33913 ft 404 kts 253°
2026-05-05 23:51 -23.69169 -44.93500 33434 ft 401 kts 253°
2026-05-05 23:52 -23.69830 -44.96448 32975 ft 397 kts 253°
2026-05-05 23:52 -23.70484 -44.99368 32537 ft 394 kts 253°
2026-05-05 23:52 -23.71126 -45.02235 32116 ft 391 kts 254°
2026-05-05 23:52 -23.71771 -45.05120 31688 ft 388 kts 254°
2026-05-05 23:53 -23.72402 -45.07944 31283 ft 385 kts 254°
2026-05-05 23:53 -23.73034 -45.10776 30866 ft 382 kts 254°
2026-05-05 23:53 -23.73663 -45.13595 30462 ft 380 kts 254°
2026-05-05 23:53 -23.74289 -45.16402 30010 ft 378 kts 254°
2026-05-05 23:54 -23.74902 -45.19159 29549 ft 375 kts 254°
2026-05-05 23:54 -23.75518 -45.21929 29093 ft 372 kts 255°
2026-05-05 23:54 -23.76122 -45.24644 28659 ft 369 kts 255°
2026-05-05 23:54 -23.76728 -45.27367 28235 ft 367 kts 255°
2026-05-05 23:55 -23.77332 -45.30079 27804 ft 365 kts 255°
2026-05-05 23:55 -23.77924 -45.32735 27397 ft 362 kts 255°
2026-05-05 23:55 -23.78519 -45.35411 26996 ft 360 kts 255°
2026-05-05 23:55 -23.79101 -45.38035 26597 ft 358 kts 255°
2026-05-05 23:56 -23.79690 -45.40687 26198 ft 356 kts 255°
2026-05-05 23:56 -23.80263 -45.43280 25870 ft 353 kts 255°
2026-05-05 23:56 -23.80848 -45.45933 25535 ft 360 kts 255°
2026-05-05 23:56 -23.81437 -45.48607 25202 ft 370 kts 255°
2026-05-05 23:57 -23.82045 -45.51372 24859 ft 375 kts 256°
2026-05-05 23:57 -23.82650 -45.54129 24500 ft 374 kts 256°
2026-05-05 23:57 -23.83257 -45.56895 24155 ft 372 kts 256°
2026-05-05 23:57 -23.83861 -45.59651 23808 ft 371 kts 256°
2026-05-05 23:58 -23.84454 -45.62360 23419 ft 369 kts 256°
2026-05-05 23:58 -23.85053 -45.65098 23042 ft 367 kts 256°
2026-05-05 23:58 -23.85641 -45.67788 22690 ft 365 kts 256°
2026-05-05 23:58 -23.86232 -45.70491 22343 ft 363 kts 256°
2026-05-05 23:59 -23.86819 -45.73183 22004 ft 361 kts 256°
2026-05-05 23:59 -23.87395 -45.75823 21671 ft 360 kts 256°
2026-05-05 23:59 -23.87977 -45.78492 21338 ft 358 kts 256°
2026-05-05 23:59 -23.88554 -45.81142 21003 ft 357 kts 256°
2026-05-06 00:00 -23.89122 -45.83752 20681 ft 356 kts 256°
2026-05-06 00:00 -23.89692 -45.86375 20351 ft 355 kts 256°
2026-05-06 00:00 -23.90268 -45.89028 20021 ft 355 kts 256°
2026-05-06 00:00 -23.90834 -45.91634 19695 ft 354 kts 256°
2026-05-06 00:01 -23.91403 -45.94261 19367 ft 354 kts 256°
2026-05-06 00:01 -23.91967 -45.96863 19030 ft 354 kts 256°
2026-05-06 00:01 -23.92533 -45.99480 18700 ft 353 kts 256°
2026-05-06 00:01 -23.93092 -46.02066 18367 ft 352 kts 256°
2026-05-06 00:02 -23.93657 -46.04683 17998 ft 351 kts 256°
2026-05-06 00:02 -23.94218 -46.07282 17653 ft 349 kts 256°
2026-05-06 00:02 -23.94774 -46.09857 17320 ft 346 kts 256°
2026-05-06 00:02 -23.95320 -46.12391 17000 ft 345 kts 256°
2026-05-06 00:03 -23.95869 -46.14943 16676 ft 343 kts 256°
2026-05-06 00:03 -23.96417 -46.17488 16360 ft 341 kts 256°
2026-05-06 00:03 -23.96952 -46.19978 15967 ft 339 kts 256°
2026-05-06 00:03 -23.97494 -46.22502 15498 ft 340 kts 256°
2026-05-06 00:04 -23.97998 -46.25011 15138 ft 338 kts 262°
2026-05-06 00:04 -23.97892 -46.27569 14802 ft 335 kts 283°
2026-05-06 00:04 -23.97164 -46.29948 14522 ft 331 kts 290°
2026-05-06 00:04 -23.96330 -46.32306 14200 ft 329 kts 291°
2026-05-06 00:05 -23.94667 -46.36908 13565 ft 323 kts 291°
2026-05-06 00:05 -23.93852 -46.39192 13245 ft 319 kts 290°
2026-05-06 00:05 -23.93064 -46.41422 12937 ft 314 kts 290°
2026-05-06 00:06 -23.92290 -46.43622 12622 ft 303 kts 290°
2026-05-06 00:06 -23.91546 -46.45747 12375 ft 300 kts 290°
2026-05-06 00:06 -23.90803 -46.47869 12108 ft 297 kts 290°
2026-05-06 00:06 -23.90066 -46.49977 11842 ft 294 kts 291°
2026-05-06 00:07 -23.89336 -46.52061 11578 ft 292 kts 291°
2026-05-06 00:07 -23.88613 -46.54129 11305 ft 287 kts 291°
2026-05-06 00:07 -23.87912 -46.56134 11055 ft 284 kts 291°
2026-05-06 00:07 -23.87205 -46.58148 10810 ft 282 kts 291°
2026-05-06 00:08 -23.86503 -46.60151 10550 ft 280 kts 291°
2026-05-06 00:08 -23.85720 -46.62092 10272 ft 278 kts 305°
2026-05-06 00:08 -23.84377 -46.63544 10033 ft 274 kts 326°
2026-05-06 00:08 -23.82772 -46.64658 9774 ft 272 kts 329°
2026-05-06 00:09 -23.81163 -46.65745 9506 ft 270 kts 329°
2026-05-06 00:09 -23.79589 -46.66820 9256 ft 268 kts 328°
2026-05-06 00:09 -23.78009 -46.67909 9043 ft 264 kts 328°
2026-05-06 00:09 -23.76494 -46.68957 8980 ft 255 kts 328°
2026-05-06 00:10 -23.75045 -46.69961 8968 ft 243 kts 328°
2026-05-06 00:10 -23.73624 -46.70946 8976 ft 237 kts 328°
2026-05-06 00:10 -23.72263 -46.71890 8994 ft 225 kts 328°
2026-05-06 00:10 -23.70969 -46.72788 8762 ft 221 kts 328°
2026-05-06 00:11 -23.69680 -46.73682 8533 ft 217 kts 328°
2026-05-06 00:11 -23.68424 -46.74553 8306 ft 215 kts 328°
2026-05-06 00:11 -23.67158 -46.75430 8080 ft 215 kts 328°
2026-05-06 00:11 -23.65887 -46.76310 7853 ft 215 kts 329°
2026-05-06 00:12 -23.64636 -46.77178 7629 ft 215 kts 329°
2026-05-06 00:12 -23.63362 -46.78060 7396 ft 216 kts 329°
2026-05-06 00:12 -23.62108 -46.78929 7172 ft 214 kts 329°
2026-05-06 00:12 -23.60859 -46.79794 6952 ft 208 kts 329°
2026-05-06 00:13 -23.59657 -46.80626 6722 ft 203 kts 329°
2026-05-06 00:13 -23.58473 -46.81446 6472 ft 198 kts 329°
2026-05-06 00:13 -23.57241 -46.81966 6223 ft 188 kts
2026-05-06 00:13 -23.56050 -46.81558 6056 ft 177 kts 38°
2026-05-06 00:14 -23.55241 -46.80591 5892 ft 175 kts 60°
2026-05-06 00:14 -23.54582 -46.79459 5711 ft 178 kts 59°
2026-05-06 00:14 -23.53911 -46.78325 5506 ft 181 kts 59°
2026-05-06 00:14 -23.53229 -46.77169 5305 ft 180 kts 59°
2026-05-06 00:15 -23.52559 -46.76031 5106 ft 176 kts 59°
2026-05-06 00:15 -23.52023 -46.74870 4886 ft 171 kts 82°
2026-05-06 00:15 -23.52186 -46.73642 4760 ft 162 kts 125°
2026-05-06 00:15 -23.52957 -46.72759 4645 ft 162 kts 135°
2026-05-06 00:16 -23.53789 -46.71987 4446 ft 155 kts 138°
2026-05-06 00:16 -23.54626 -46.71277 4253 ft 150 kts 142°
2026-05-06 00:16 -23.55487 -46.70647 4090 ft 146 kts 144°
2026-05-06 00:16 -23.56324 -46.70062 3957 ft 143 kts 144°
2026-05-06 00:17 -23.57152 -46.69485 3766 ft 141 kts 144°
2026-05-06 00:17 -23.57976 -46.68912 3584 ft 139 kts 144°
2026-05-06 00:17 -23.58803 -46.68337 3398 ft 141 kts 145°
2026-05-06 00:17 -23.59626 -46.67764 3210 ft 143 kts 146°
2026-05-06 00:18 -23.60470 -46.67177 3014 ft 144 kts 146°
2026-05-06 00:18 -23.61322 -46.66585 2781 ft 144 kts 146°
2026-05-06 00:18 -23.62140 -46.66010 2621 ft 136 kts 146°
2026-05-06 00:18 -23.62790 -46.65561 2624 ft 63 kts 136°
2026-05-06 00:19 -23.62901 -46.65482 2628 ft 0 kts 149°
2026-05-06 00:20 -23.62920 -46.65470 2629 ft 7 kts 149°
2026-05-06 00:20 -23.62981 -46.65429 2633 ft 13 kts 148°
2026-05-06 00:20 -23.63061 -46.65378 2637 ft 13 kts 156°
2026-05-06 00:21 -23.63148 -46.65377 2638 ft 12 kts 195°
2026-05-06 00:21 -23.63157 -46.65450 2638 ft 12 kts 319°
2026-05-06 00:21 -23.63084 -46.65501 2634 ft 13 kts 329°
2026-05-06 00:21 -23.62989 -46.65532 2628 ft 15 kts 333°
2026-05-06 00:22 -23.62893 -46.65597 2625 ft 16 kts 327°
2026-05-06 00:22 -23.62805 -46.65658 2624 ft 14 kts 328°
2026-05-06 00:22 -23.62734 -46.65708 2621 ft 12 kts 327°
2026-05-06 00:22 -23.62663 -46.65757 2618 ft 13 kts 327°
2026-05-06 00:23 -23.62604 -46.65802 2616 ft 6 kts 305°
2026-05-06 00:23 -23.62612 -46.65846 2615 ft 6 kts 242°
2026-05-06 00:23 -23.62628 -46.65873 2615 ft 2 kts 237°
2026-05-06 00:23 -23.62632 -46.65880 2615 ft 0 kts 237°